Location: Ferma
(41.9500°N, 44.5167°E)
Time: 11:48:56
(UTC+00:00)

CZ-2C R/B - Visible Passes

Search period start: 29 May 2022 00:00
Search period end: 08 June 2022 00:00
Orbit: 382 x 551 km, 35.0° (Epoch: 29 May)

Date Brightness Start Highest point End Pass type
(mag) Time Alt. Az. Time Alt. Az. Time Alt. Az.
01 Jun 2.7 00:26:03 12° SSW 00:27:40 17° SSE 00:29:55 10° ESE visible
01 Jun 2.6 23:53:55 16° SSE 23:54:01 16° SSE 23:56:05 10° SE visible
02 Jun 3.2 23:21:46 12° SE 23:21:46 12° SE 23:22:14 10° SE visible
04 Jun 2.0 00:23:31 16° SW 00:25:08 23° S 00:27:50 10° ESE visible
04 Jun 2.0 23:51:25 23° S 23:51:25 23° S 23:54:03 10° ESE visible
05 Jun 2.9 23:19:24 15° SE 23:19:24 15° SE 23:20:15 10° ESE visible
07 Jun 2.2 00:21:24 16° SW 00:22:27 19° S 00:24:51 10° SE visible
07 Jun 2.5 23:49:40 17° SSE 23:49:40 17° SSE 23:51:04 10° SE visible
